Hourly Data Report for March 19, 2003

SHERBROOKE A
QUEBEC

45°26'00.000" N
71°41'00.000" W
241.40 m
7028124
71610
YSC

Download Data

Hourly Data (March 2003)
Hourly Data Report for March 19, 2003
TIME
LST
Temp Definition
°C
Dew Point Definition
°C
Rel Hum Definition
%
Precip. Amount Definition
mm

Wind Dir Definition
10's deg

Wind Spd Definition
km/h
Visibility Definition
km
Stn Press Definition
kPa
Hmdx Definition


Wind Chill Definition


Weather Definition


00:00 -7.1 -19.5 36   2 15 15.0 99.52   -13  
01:00 -8.2 -19.8 39   3 7 15.0 99.62   -12  
02:00 -9.4 -19.7 43   4 6 15.0 99.67   -13  
03:00 -11.9 -19.8 52     0 15.0 99.74      
04:00 -13.5 -20.4 56   7 4 15.0 99.80   -16  
05:00 -12.3 -19.5 55   6 6 15.0 99.84   -16  
06:00 -11.8 -19.6 52   5 9 15.0 99.92   -17  
07:00 -10.0 -19.1 47   5 7 15.0 99.99   -14  
08:00 -8.0 -18.9 41   6 9 24.1 100.04   -13 Clear
09:00 -6.2 -18.0 39   5 6 24.1 100.06   -9 Clear
10:00 -4.6 -18.8 32     0 24.1 100.08     Clear
11:00 -2.6 LegendMM LegendMM   34 6 24.1 100.04   -5 Clear
12:00 -1.7 -17.1 30   27 6 24.1 100.00   -4 Clear
13:00 0.8 -18.2 23     0 24.1 99.93     Clear
14:00 1.3 -18.1 22   25 6 24.1 99.86     Clear
15:00 2.3 -18.2 20     0 24.1 99.82     Clear
16:00 3.4 -18.7 18     0 24.1 99.78     Clear
17:00 2.4 -19.0 19     0 24.1 99.78     Clear
18:00 0.6 -18.3 23   2 4 15.0 99.75      
19:00 -2.8 -13.6 43   3 4 15.0 99.74   -4  
20:00 -3.9 -14.7 43   6 4 15.0 99.74   -6  
21:00 -4.7 -13.2 51   9 6 15.0 99.71   -7  
22:00 -4.7 -13.2 51   8 7 15.0 99.66   -8  
23:00 -6.5 -13.4 58     0 15.0 99.64      

Notes on Data Quality.

Legend

  • E = Estimated
  • M = Missing
  • NA = Not Available*
  • [empty] = Indicates an unobserved value
Date modified: